Hourly Data Report for September 20, 2017

All times are specified in Local Standard Time (LST). Add 1 hour to adjust for Daylight Saving Time where and when it is observed.

BATHURST A
NEW BRUNSWICK

47°37'47.000" N
65°44'20.000" W
58.80 m
8100505
71574
ZBF

Download Data

Hourly Data (September 2017)
Hourly Data Report for September 20, 2017
Temp Definition
°C
Dew Point Temp Definition
°C
Rel Hum Definition
%
Wind Dir Definition
10's deg

Wind Spd Definition
km/h
Visibility Definition
km
Stn Press Definition
kPa
Hmdx Definition


Wind Chill Definition


Weather Definition


TIME
00:00 Legend Double Dagger 13.4 13.2 99 22 3 4.8 101.24     Fog
01:00 Legend Double Dagger 13.4 13.2 99 28 3 4.8 101.21     Fog
02:00 Legend Double Dagger 12.9 12.7 99 36 2 6.4 101.19     Fog
03:00 Legend Double Dagger 12.6 12.4 99 23 5 6.4 101.16     Fog
04:00 Legend Double Dagger 12.6 12.4 99 36 3 6.4 101.13     Fog
05:00 Legend Double Dagger 12.4 12.1 98 21 3 9.7 101.13     Fog
06:00 Legend Double Dagger 11.6 11.4 98 25 6 9.7 101.15     Fog
07:00 Legend Double Dagger 12.5 12.3 99 23 7 19.3 101.18     LegendNANA
08:00 Legend Double Dagger 15.1 14.6 97 21 5 19.3 101.18     Mostly Cloudy
09:00 Legend Double Dagger 18.9 16.4 85 26 13 19.3 101.15     LegendNANA
10:00 Legend Double Dagger 20.1 16.9 82 29 14 19.3 101.14 25   LegendNANA
11:00 Legend Double Dagger 21.2 17.3 78 29 9 24.1 101.09 27   Mostly Cloudy
12:00 Legend Double Dagger 20.2 17.1 82 4 7 19.3 101.03 26   LegendNANA
13:00 Legend Double Dagger 20.5 17.3 82 4 7 24.1 101.01 26   LegendNANA
14:00 Legend Double Dagger 20.7 17.3 80 2 7 24.1 100.99 26   Mostly Cloudy
15:00 Legend Double Dagger 23.2 17.9 72 5 9 24.1 100.93 29   LegendNANA
16:00 Legend Double Dagger 23.3 16.0 63 2 7 24.1 100.93 28   LegendNANA
17:00 Legend Double Dagger 22.4 11.5 50 36 9 24.1 100.96     Mainly Clear
18:00 Legend Double Dagger 20.0 10.9 55 31 5 24.1 100.99     LegendNANA
19:00 Legend Double Dagger 16.5 11.1 70 6 7 24.1 101.02     LegendNANA
20:00 Legend Double Dagger 15.1 10.1 72 2 3 24.1 101.06     Clear
21:00 Legend Double Dagger 13.5 10.3 81 34 5 24.1 101.15     LegendNANA
22:00 Legend Double Dagger 11.1 9.6 90 30 3 24.1 101.22     LegendNANA
23:00 Legend Double Dagger 10.0 9.1 94 25 4 11.3 101.23     Clear

Notes on Data Quality.

Legend

  • E = Estimated
  • M = Missing
  • NA = Not Available
  • ‡ = Partner data that is not subject to review by the National Climate Archives
Date modified: